User: anonymous   Login
Location: Trois-Rivi�res
(46.3500°N, 72.5500°W)
Time: 01:11:40
(UTC-05:00)
Language:

Cosmos 1975 - Orbit

View from above orbital plane
View from above orbital plane
View from above satellite
View from above satellite

Ground track
Ground track

The orbit data is extracted from the following two-line orbital elements,

1 19573U 88093A   17052.64840358  .00000554  00000-0  37930-4 0  9996
2 19573  82.5184  97.2644 0013769 339.1422  20.9241 15.04044168542447
Epoch (UTC): 21 February 2017 15:33:42
Eccentricity: 0.0013769
inclination: 82.5184°
perigee height: 545 km
apogee height: 564 km
right ascension of ascending node: 97.2644°
argument of perigee: 339.1422°
revolutions per day: 15.04044168
mean anomaly at epoch: 20.9241°
orbit number at epoch: 54244

The dashed part of the orbit path shows where the satellite is in the earth's shadow,  

DLR